EDW71 FIMP-LSZH

Flight info

Callsign EDW71
Flight time N/A
Altitude 36000
Route OKMAR2A OKMAR UT665 AMBOD UA665 ANKOR DCT UVDOX/N0496F370 UN304 APKAK/N0498F360 UN304 MOGDU/N0492F380 UN304 DWA DCT XADOX DCT SETIT UR780 ASM/N0489F390 UG650 RASKA/N0494F380 T513 EGMEG/N0492F390 T513 JDW/N0496F380 L677 DARAX/N0493F400 L677 GESON Q777 RASDA DCT OTHON DCT VAXOS DCT RDS UL609 MES DCT DISOR DCT LONTA UL608 DOLEV DCT TIVNU DCT TEBLI DCT ERKIR DCT KPT L856 NEGRA
Aircraft A359/H-SDE2E3GHIJ3J4J5LM1ORWXY/LB1D1

Departure

Time 2026-04-29 10:10
Airport Sir Seewoosagur Ramgoolam International Airport (FIMP)

Arrival

Time N/A
Airport Zürich Airport (LSZH)
Time Latitude Longitude Altitude Speed Heading
2026-04-29 09:48 -20.43319 57.67991 184 ft 0 kts 250°
2026-04-29 09:59 -20.43316 57.68000 183 ft 1 kts 250°
2026-04-29 09:59 -20.43312 57.68010 184 ft 1 kts 250°
2026-04-29 09:59 -20.43309 57.68021 184 ft 2 kts 250°
2026-04-29 10:00 -20.43305 57.68031 201 ft 1 kts 250°
2026-04-29 10:00 -20.43300 57.68048 190 ft 3 kts 257°
2026-04-29 10:00 -20.43299 57.68066 198 ft 3 kts 291°
2026-04-29 10:00 -20.43308 57.68083 196 ft 3 kts 313°
2026-04-29 10:01 -20.43323 57.68095 202 ft 3 kts 339°
2026-04-29 10:01 -20.43326 57.68097 202 ft 0 kts 346°
2026-04-29 10:03 -20.43314 57.68093 202 ft 4 kts 345°
2026-04-29 10:04 -20.43266 57.68078 199 ft 10 kts 343°
2026-04-29 10:04 -20.43195 57.68037 193 ft 12 kts 319°
2026-04-29 10:04 -20.43134 57.67975 196 ft 12 kts 312°
2026-04-29 10:04 -20.43083 57.67895 183 ft 14 kts 299°
2026-04-29 10:05 -20.43033 57.67796 182 ft 16 kts 298°
2026-04-29 10:05 -20.42984 57.67696 192 ft 15 kts 297°
2026-04-29 10:05 -20.42913 57.67627 193 ft 14 kts 330°
2026-04-29 10:05 -20.42827 57.67572 186 ft 14 kts 327°
2026-04-29 10:06 -20.42747 57.67513 199 ft 13 kts 319°
2026-04-29 10:06 -20.42671 57.67468 205 ft 12 kts 339°
2026-04-29 10:06 -20.42591 57.67431 195 ft 14 kts 326°
2026-04-29 10:06 -20.42529 57.67333 204 ft 18 kts 297°
2026-04-29 10:07 -20.42468 57.67208 196 ft 20 kts 297°
2026-04-29 10:07 -20.42427 57.67075 188 ft 19 kts 269°
2026-04-29 10:07 -20.42416 57.66948 203 ft 11 kts 296°
2026-04-29 10:07 -20.42403 57.66930 198 ft 5 kts 314°
2026-04-29 10:08 -20.42362 57.66925 199 ft 4 kts 35°
2026-04-29 10:08 -20.42356 57.66954 191 ft 6 kts 89°
2026-04-29 10:08 -20.42366 57.66996 203 ft 0 kts 117°
2026-04-29 10:09 -20.42366 57.66997 186 ft 2 kts 117°
2026-04-29 10:09 -20.42432 57.67133 200 ft 49 kts 117°
2026-04-29 10:09 -20.42685 57.67658 200 ft 108 kts 117°
2026-04-29 10:10 -20.43109 57.68539 202 ft 157 kts 119°
2026-04-29 10:10 -20.43641 57.69643 581 ft 167 kts 114°
2026-04-29 10:10 -20.44164 57.70734 1135 ft 164 kts 114°
2026-04-29 10:10 -20.44699 57.71804 1634 ft 163 kts 115°
2026-04-29 10:11 -20.45185 57.72882 1981 ft 159 kts 101°
2026-04-29 10:11 -20.45148 57.74007 2336 ft 150 kts 66°
2026-04-29 10:11 -20.44593 57.74948 2606 ft 151 kts 49°
2026-04-29 10:11 -20.43925 57.75821 2849 ft 158 kts 50°
2026-04-29 10:12 -20.43194 57.76743 3094 ft 167 kts 48°
2026-04-29 10:12 -20.42405 57.77706 3357 ft 176 kts 47°
2026-04-29 10:12 -20.41564 57.78699 3663 ft 184 kts 46°
2026-04-29 10:12 -20.40679 57.79707 3988 ft 189 kts 45°
2026-04-29 10:13 -20.39648 57.80587 4332 ft 193 kts 25°
2026-04-29 10:13 -20.38343 57.80976 4691 ft 199 kts
2026-04-29 10:13 -20.36860 57.80892 4538 ft 235 kts 347°